World > North America > United States > Texas

Trenton, Texas Regional Weather

Lat: 33.43N, Lon: 96.34W
Wx Zone: TXZ094Web Search
Trenton Weather Warning NWS WEATHER ALERT FOR THE TRENTON, TX AREA - Issued: 727 PM CDT Thu Apr 15 2021 Trenton Weather Warning  

Ads allow us to feed your daily addiction for the world's greatest weather information. We're determined to offer quality sponsors, in the least annoying way possible.

Feedback


°F Click to change Trenton hourly weather to Imperial units.Click to change Trenton hourly weather to Metric units. °C
Trenton Weather Map
UTC Time: 4/16/2021, 07:10
Your Time:

Trenton, TX Regional Weather

Expires:202104160800;;627059
ASUS44 KFWD 160703
RWRTX 
NORTH TEXAS HOURLY WEATHER ROUNDUP
NATIONAL WEATHER SERVICE FORT WORTH TX
200 AM CDT FRI APR 16 2021

NOTE: "FAIR" INDICATES FEW OR NO CLOUDS BELOW 12,000 FEET WITH NO
SIGNIFICANT WEATHER AND/OR OBSTRUCTIONS TO VISIBILITY.


TXZ091>094-102>105-117-120-121-131>134-160800-
NORTH CENTRAL TEXAS
  
CITY           SKY/WX    TMP DP  RH WIND       PRES   REMARKS
SHRMAN/DENISON CLOUDY    55  53  92 E7        29.92F                  
BOWIE          CLOUDY    54  53  97 E6        29.88F                  
BRIDGEPORT     DRIZZLE   55  55 100 E5        29.89F                  
DECATUR        CLOUDY    54  53  96 E7        29.89F FOG              
DENTON         CLOUDY    56  54  93 E5        29.90F                  
MCKINNEY       CLOUDY    56  54  93 E6        29.90F                  
BONHAM         MOCLDY    55  53  93 SE10      29.91F                  
GREENVILLE     HVY RAIN  55  55  97 NE5       29.94R FOG              
ROCKWALL       CLOUDY    56  56 100 E8        29.90F                  
TERRELL        LGT RAIN  56  56 100 E8        29.90F                  
WAXAHACHIE     RAIN      56  56 100 CALM      29.92S                  
CLEBURNE       MOCLDY    57  57 100 SE12      29.85F                  
GRANBURY       CLOUDY    59  56  91 E7        29.88F                  
$$


SKY/WX - Weather  TMP - Temperature  DP - Dew Point  RH - Relative Humidity
WIND - Wind Direction/Speed PRES - Barometric Pressure VSB - Visibility
WCI - Wind Chill Index E13G22 Wind - East Wind 13 mph/Gusts of 22 mph